[[{"header":{"parameterUnit":"m.s-1","parameterCategory":1,"la1":30.2991,"la2":30.254,"lo1":-89.0895,"lo2":-89.0444,"dy":0.0017,"dx":0.0017,"nx":28,"ny":28,"refTime":"2023-09-30T09:00:00:Z","depth":0,"parameterNumber":2,"parameterNumberName":"U-component_of_WINDS"},"data":[0,0,0,0,0,0,0,0,0,0,0,0,0,0,0,0,0,0,0,0,0,0,0,0,0,0,0,0,0,0,0,0,0,0,0,0,0,0,0,0,0,0,0,0,0,0,0,0,0,0,0,0,0,0,0,0,0,0,-3.8101,-3.81,0,-3.8093,-3.8093,-3.8093,-3.7936,-3.7932,-3.7928,-3.7925,-3.7917,-3.792,-3.7924,0,0,0,0,0,0,0,0,0,0,0,0,0,-3.7979,-3.7983,-3.8101,-3.81,-3.81,-3.8093,-3.8093,-3.8093,-3.7937,-3.7932,-3.7927,-3.7923,-3.7916,-3.792,-3.7924,0,0,0,0,0,0,0,0,0,0,0,0,0,-3.8008,-3.7984,-3.8101,-3.8022,-3.8015,-3.8093,-3.8093,-3.8093,-3.7938,-3.7932,-3.7926,-3.7921,-3.7914,-3.792,-3.7925,-3.8078,0,0,-3.7941,-3.7943,0,0,0,0,0,0,0,0,-3.8007,-3.8013,-3.8033,-3.8027,-3.8019,-3.8009,-3.8047,-3.8088,-3.794,-3.7967,-3.7925,-3.7918,-3.7953,-3.7954,-3.7966,-3.8078,-3.8077,-3.7941,-3.7945,-3.7947,-3.7948,0,0,0,0,0,0,0,-3.8005,-3.8012,-3.8097,-3.8034,-3.8025,-3.7987,-3.7984,-3.8054,-3.7994,-3.7964,-3.7953,-3.7954,-3.7948,-3.7962,-3.7965,-3.8077,-3.7941,-3.7946,-3.7949,-3.7951,-3.8313,-3.8319,0,0,0,0,0,0,-3.8014,-3.8012,-3.8098,-3.8097,-3.7998,-3.7994,-3.7991,-3.8019,-3.7993,-3.7983,-3.7959,-3.7947,-3.7955,-3.7959,-3.7964,-3.8141,-3.7947,-3.7952,-3.7955,-3.8307,-3.8315,-3.8322,0,0,0,0,0,0,-3.8012,-3.8023,-3.8098,-3.8051,-3.8058,-3.8002,-3.8035,-3.8022,-3.8035,-3.7989,-3.7977,-3.7985,-3.7951,-3.7957,-3.8051,-3.8138,-3.7954,-3.7959,-3.8299,-3.8309,-3.8318,-3.8497,0,0,0,0,0,0,-3.8009,-3.8023,-3.8081,-3.8054,-3.8061,-3.8186,-3.804,-3.8026,-3.8045,-3.8029,-3.8009,-3.8,-3.7946,-3.8044,-3.8056,-3.8142,-3.7963,-3.8291,-3.8304,-3.8315,-3.8483,-3.8512,-3.8536,0,0,0,0,0,-3.8005,-3.8132,-3.8085,-3.8096,-3.8132,-3.8191,-3.8195,-3.813,-3.8053,-3.811,-3.808,-3.8001,-3.8127,-3.8055,-3.8067,-3.8157,-3.8285,-3.83,-3.8314,-3.8471,-3.8506,-3.8535,0,0,0,0,0,0,-3.817,-3.8127,-3.8074,-3.8195,-3.8198,-3.8164,-3.8235,-3.8169,-3.8194,-3.8177,-3.8096,-3.8093,-3.82,-3.8187,-3.8107,-3.8303,-3.8192,-3.821,-3.8307,-3.834,-3.8366,-3.8366,-3.7968,0,0,0,0,0,-3.8221,-3.8273,-3.8231,-3.8342,-3.8346,-3.8291,-3.8314,-3.8264,-3.8263,-3.8264,-3.824,-3.8243,-3.8283,-3.8311,-3.8345,-3.8481,-3.8474,-3.8549,-3.8575,-3.8597,-3.8613,-3.8684,-3.8716,-3.8369,-3.8369,-3.8369,0,0,-3.8326,-3.8308,-3.8346,-3.8375,-3.8371,-3.8426,-3.8293,-3.8357,-3.8396,-3.8273,-3.836,-3.8344,-3.8341,-3.8457,-3.8507,-3.845,-3.8708,-3.8616,-3.8634,-3.8637,-3.8702,-3.8735,-3.8764,-3.8379,-3.8377,-3.8376,0,0,-3.8544,-3.8537,-3.8628,-3.8627,-3.8623,-3.8585,-3.8608,-3.8584,-3.8569,-3.8655,-3.8564,-3.861,-3.8681,-3.8682,-3.8693,-3.8913,-3.8841,-3.8927,-3.9065,-3.9135,-3.9162,-3.9186,-3.9264,-3.9293,-3.8943,-3.8944,-3.8944,0,-3.8675,-3.8754,-3.8684,-3.8753,-3.8769,-3.8661,-3.8752,-3.8755,-3.8763,-3.8776,-3.8712,-3.8799,-3.8789,-3.8903,-3.8957,-3.897,-3.8992,-3.8928,-3.9164,-3.9187,-3.9208,-3.9282,-3.9312,-3.8954,-3.8953,-3.8952,-3.8951,0,-3.8915,-3.8972,-3.9046,-3.9056,-3.908,-3.9161,-3.9102,-3.9135,-3.9083,-3.9053,-3.9142,-3.9127,-3.9156,-3.918,-3.913,-3.9288,-3.9252,-3.9178,-3.9065,-3.9253,-3.9321,-3.9349,-3.8969,-3.8965,-3.8962,-3.8959,0,0,-3.9237,-3.9207,-3.9235,-3.9239,-3.9227,-3.9269,-3.9345,-3.9373,-3.9403,-3.9412,-3.9474,-3.9537,-3.9467,-3.9479,-3.9429,-3.949,-3.9666,-3.9408,-3.9406,-3.9456,-3.9838,-3.9894,-3.9927,-3.9618,-3.9623,-3.9627,-3.9838,0,-3.9447,-3.9575,-3.9514,-3.9649,-3.97,-3.9598,-3.9664,-3.9664,-3.9638,-3.9677,-3.9647,-3.9693,-3.9599,-3.9605,-3.9662,-3.9633,-3.9741,-3.9617,-3.9674,-3.9677,-3.9677,-3.9963,-4.0022,-4.0221,-3.9864,-3.9868,-3.9872,0,-3.971,-3.973,-3.9871,-3.9849,-3.9868,-3.9929,-3.995,-3.999,-3.9987,-3.9964,-3.9978,-3.9913,-3.9986,-3.9875,-3.9974,-3.9891,-3.9911,-3.99,-3.9907,-3.9909,-3.9785,-3.9972,-4.0283,-4.0313,-3.9913,-3.991,-3.9907,0,-3.993,-3.9992,-4.0084,-4.009,-4.0068,-4.0113,-4.0106,-4.0097,-4.0119,-4.0138,-4.015,-4.0178,-4.0193,-4.0216,-4.0161,-4.0085,-4.0268,-4.0152,-4.025,-4.0251,-4.0292,-4.029,-4.061,-4.0307,-4.0306,-4.0306,-4.0305,0,-4.0171,-4.0261,-4.0183,-4.0239,-4.0337,-4.0266,-4.0364,-4.0345,-4.034,-4.039,-4.0304,-4.0354,-4.0278,-4.0321,-4.0278,-4.0367,-4.0374,-4.0357,-4.0344,-4.0364,-4.0367,-4.0376,-4.036,-4.0314,-4.0312,-4.031,-4.0309,0,-4.0432,-4.0384,-4.0477,-4.0449,-4.0443,-4.0517,-4.0492,-4.0543,-4.0511,-4.0577,-4.0588,-4.0538,-4.0583,-4.053,-4.0572,-4.0543,-4.0663,-4.063,-4.0664,-4.0654,-4.0755,-4.0746,-4.1091,-4.1132,-4.0804,-4.0807,-4.081,0,-4.0589,-4.0656,-4.0635,-4.0663,-4.0661,-4.0707,-4.0728,-4.0661,-4.0687,-4.069,-4.0741,-4.0779,-4.0806,-4.0884,-4.0851,-4.0882,-4.0849,-4.0968,-4.0853,-4.0871,-4.085,-4.0846,-4.0852,-4.0991,-4.0995,-4.0998,-4.1001,0,-4.0872,-4.0845,-4.0879,-4.0906,-4.0934,-4.0951,-4.0962,-4.099,-4.092,-4.0953,-4.0999,-4.102,-4.1062,-4.1101,-4.1123,-4.1115,-4.1047,-4.1037,-4.1061,-4.1082,-4.1098,-4.109,-4.0727,-4.1029,-4.1026,-4.1024,-4.1023,-4.1022,-4.1085,-4.114,-4.1133,-4.1174,-4.1176,-4.1188,-4.1234,-4.1208,-4.1245,-4.1274,-4.1232,-4.1289,-4.1285,-4.1308,-4.1308,-4.1352,-4.1301,-4.1336,-4.1345,-4.1354,-4.1369,-4.1093,-4.1356,-4.1355,-4.1354,-4.1353,-4.1353,0,-4.1363,-4.1355,-4.1393,-4.1411,-4.1444,-4.1377,-4.1385,-4.1417,-4.1468,-4.147,-4.1499,-4.1551,-4.1589,-4.156,-4.1591,-4.1631,-4.1601,-4.1642,-4.1638,-4.1637,-4.1413,-4.1389,-4.1666,-4.1666,-4.1666,-4.1666,-4.1666,-4.1666,-4.1512,-4.16,-4.1573,-4.1661,-4.1651,-4.1706,-4.1717,-4.1727,-4.1729,-4.1791,-4.1822,-4.1803,-4.1793,-4.1823,-4.1854,-4.1845,-4.186,-4.1913,-4.1892,-4.1684,-4.1653,-4.1623,-4.16,-4.1917,-4.1917,-4.2111,-4.2113,-4.2115]},{"header":{"parameterUnit":"m.s-1","parameterCategory":1,"la1":30.2991,"la2":30.254,"lo1":-89.0895,"lo2":-89.0444,"dy":0.0017,"dx":0.0017,"nx":28,"ny":28,"refTime":"2023-09-30T09:00:00:Z","depth":0,"parameterNumber":3,"parameterNumberName":"V-component_of_WINDS"},"data":[0,0,0,0,0,0,0,0,0,0,0,0,0,0,0,0,0,0,0,0,0,0,0,0,0,0,0,0,0,0,0,0,0,0,0,0,0,0,0,0,0,0,0,0,0,0,0,0,0,0,0,0,0,0,0,0,0,0,0.4116,0.4116,0,0.4088,0.4088,0.4087,0.4067,0.4067,0.4067,0.4067,0.4036,0.4035,0.4034,0,0,0,0,0,0,0,0,0,0,0,0,0,0.4152,0.4152,0.4116,0.4116,0.4116,0.4088,0.4088,0.4087,0.4067,0.4067,0.4067,0.4067,0.4036,0.4035,0.4034,0,0,0,0,0,0,0,0,0,0,0,0,0,0.4132,0.4152,0.4116,0.4102,0.4101,0.4088,0.4088,0.4087,0.4067,0.4067,0.4067,0.4067,0.4036,0.4035,0.4034,0.4033,0,0,0.4031,0.4031,0,0,0,0,0,0,0,0,0.4133,0.413,0.4105,0.4103,0.4102,0.4081,0.4089,0.4069,0.4067,0.408,0.4067,0.4066,0.4051,0.4049,0.4044,0.4031,0.403,0.4031,0.403,0.403,0.403,0,0,0,0,0,0,0,0.4134,0.4131,0.4105,0.4104,0.4102,0.4097,0.4094,0.4085,0.4067,0.4079,0.4077,0.4074,0.405,0.4045,0.4043,0.4029,0.4031,0.403,0.403,0.4029,0.4016,0.4016,0,0,0,0,0,0,0.4138,0.4133,0.4106,0.4104,0.4117,0.4097,0.4093,0.4088,0.4067,0.4064,0.4075,0.4073,0.4047,0.4044,0.4042,0.4039,0.403,0.4029,0.4028,0.4016,0.4016,0.4016,0,0,0,0,0,0,0.4139,0.4136,0.4107,0.4118,0.4114,0.4096,0.409,0.4087,0.4082,0.4064,0.406,0.4073,0.4046,0.4043,0.4036,0.4038,0.4029,0.4028,0.4015,0.4016,0.4016,0.4034,0,0,0,0,0,0,0.414,0.4136,0.4136,0.4118,0.4114,0.4101,0.4091,0.4087,0.4081,0.4079,0.4061,0.4058,0.4046,0.4037,0.4035,0.4036,0.4027,0.4015,0.4016,0.4016,0.4033,0.4035,0.4037,0,0,0,0,0,0.4142,0.4141,0.4136,0.4132,0.4112,0.4102,0.4099,0.4086,0.4081,0.408,0.4069,0.4059,0.4038,0.4037,0.4033,0.4035,0.4015,0.4015,0.4016,0.4032,0.4035,0.4036,0,0,0,0,0,0,0.4158,0.4138,0.4132,0.4126,0.4116,0.4098,0.4096,0.4088,0.4078,0.4077,0.4061,0.4057,0.4051,0.4042,0.4041,0.4033,0.4025,0.4025,0.4039,0.4041,0.4043,0.4044,0.4026,0,0,0,0,0,0.4161,0.4154,0.4137,0.4134,0.4129,0.4114,0.4109,0.41,0.4088,0.4083,0.4071,0.406,0.4051,0.4046,0.4037,0.4032,0.4028,0.4032,0.4034,0.4035,0.4035,0.4033,0.4035,0.4018,0.4018,0.4018,0,0,0.4166,0.4155,0.4152,0.4137,0.4128,0.4121,0.411,0.4103,0.4098,0.4082,0.4074,0.4066,0.4052,0.4047,0.4043,0.4039,0.4039,0.4036,0.4037,0.4036,0.4034,0.4035,0.4037,0.4019,0.4019,0.4018,0,0,0.4173,0.4164,0.4161,0.4152,0.414,0.413,0.4129,0.4113,0.4107,0.41,0.4088,0.4082,0.4067,0.4058,0.4052,0.4058,0.4049,0.4056,0.4064,0.4063,0.4064,0.4065,0.4068,0.4069,0.4056,0.4056,0.4056,0,0.4182,0.4172,0.416,0.4154,0.4148,0.4135,0.4131,0.4124,0.4108,0.4104,0.41,0.4082,0.4072,0.4065,0.4067,0.4062,0.4061,0.4057,0.4065,0.4066,0.4067,0.4069,0.407,0.4057,0.4057,0.4057,0.4057,0,0.4183,0.4177,0.4176,0.4162,0.4156,0.4152,0.4139,0.4134,0.4127,0.4118,0.4111,0.4099,0.4087,0.4085,0.4077,0.4077,0.4075,0.4068,0.406,0.4069,0.4071,0.4072,0.4058,0.4058,0.4058,0.4057,0,0,0.4198,0.418,0.4179,0.4174,0.416,0.4154,0.415,0.414,0.4137,0.4127,0.4123,0.4112,0.4106,0.4099,0.409,0.4088,0.4095,0.4082,0.4081,0.4085,0.4095,0.41,0.4102,0.409,0.409,0.409,0.4097,0,0.4203,0.4194,0.4184,0.4179,0.4173,0.4161,0.4157,0.4149,0.4141,0.4134,0.4125,0.4118,0.4111,0.4107,0.4105,0.4095,0.4097,0.4094,0.4085,0.4085,0.4088,0.4102,0.4107,0.4114,0.4097,0.4097,0.4097,0,0.4206,0.4199,0.4194,0.4182,0.4179,0.4176,0.4167,0.4161,0.4151,0.4145,0.4139,0.413,0.4125,0.4118,0.4111,0.411,0.4106,0.41,0.41,0.4098,0.4091,0.41,0.4116,0.4117,0.4098,0.4098,0.4098,0,0.4218,0.4206,0.4202,0.4198,0.4183,0.4182,0.4176,0.4166,0.4161,0.4153,0.415,0.4141,0.4136,0.413,0.4119,0.4116,0.4114,0.4106,0.4109,0.4109,0.4108,0.4108,0.4123,0.4106,0.4106,0.4106,0.4106,0,0.4224,0.4221,0.4207,0.4204,0.4201,0.419,0.4187,0.418,0.4172,0.4167,0.4157,0.4153,0.4139,0.4134,0.4125,0.4121,0.4119,0.4114,0.4112,0.4115,0.4116,0.4111,0.411,0.4107,0.4107,0.4106,0.4106,0,0.4235,0.4226,0.4221,0.4208,0.4205,0.4204,0.4193,0.419,0.4183,0.4178,0.4176,0.4163,0.4157,0.4146,0.4135,0.413,0.4127,0.4124,0.4131,0.4129,0.4133,0.4132,0.4144,0.4146,0.4129,0.4129,0.413,0,0.424,0.4237,0.4226,0.4223,0.4217,0.4212,0.4208,0.4197,0.4193,0.4183,0.4182,0.4175,0.4168,0.4158,0.4148,0.4141,0.4137,0.4142,0.4135,0.4139,0.4137,0.4137,0.4137,0.4143,0.4143,0.4143,0.4143,0,0.4248,0.4244,0.4239,0.4232,0.4228,0.4221,0.4215,0.4213,0.4201,0.4197,0.4191,0.4186,0.4177,0.417,0.4161,0.4155,0.4147,0.4146,0.4146,0.4148,0.4153,0.415,0.4134,0.4145,0.4145,0.4145,0.4144,0.4144,0.4256,0.4254,0.4246,0.4241,0.4235,0.423,0.4227,0.422,0.4214,0.4206,0.4201,0.4195,0.4187,0.4175,0.4169,0.4165,0.4161,0.4161,0.4161,0.4161,0.4162,0.4154,0.4163,0.4163,0.4163,0.4163,0.4163,0,0.4264,0.4259,0.4254,0.4246,0.4242,0.4237,0.423,0.4226,0.4222,0.4215,0.421,0.4203,0.4197,0.4188,0.4181,0.4179,0.4175,0.4178,0.4177,0.4176,0.4166,0.4167,0.4181,0.4181,0.4181,0.4181,0.4181,0.4181,0.4268,0.4265,0.426,0.4254,0.4249,0.4244,0.424,0.4236,0.423,0.4224,0.4219,0.4213,0.4206,0.4199,0.4193,0.419,0.4188,0.4192,0.4188,0.4178,0.4177,0.4175,0.4175,0.4191,0.4191,0.4198,0.4198,0.4198]}]]